Date,TemperatureHighF,TemperatureAvgF,TemperatureLowF,DewpointHighF,DewpointAvgF,DewpointLowF,HumidityHigh,HumidityAvg,HumidityLow,PressureMaxIn,PressureMinIn,WindSpeedMaxMPH,WindSpeedAvgMPH,GustSpeedMaxMPH,PrecipitationSumIn
2013-2-1,60.1,52.4,43.9,40.2,35.4,30.5,72,53,39,30.04,29.87,16,2,16,0.02
2013-2-2,64.6,53.9,44.1,51.3,45.2,37.7,84,73,56,29.88,29.75,17,2,17,0.00
2013-2-3,65.1,60.1,57.0,54.3,52.6,50.6,85,77,62,29.90,29.75,38,9,38,0.02
2013-2-4,67.8,60.0,55.4,56.3,52.3,49.2,86,76,59,29.96,29.88,16,1,16,0.02
2013-2-5,62.8,57.4,51.3,52.3,49.1,43.8,86,74,59,29.97,29.81,19,1,19,0.02
2013-2-6,63.7,54.7,46.2,51.7,46.5,41.0,84,74,59,29.83,29.65,13,2,13,0.00
2013-2-7,61.3,54.8,50.7,50.9,47.5,43.3,85,76,65,29.69,29.49,35,6,35,0.37
2013-2-8,57.9,52.0,46.9,46.7,42.4,39.6,82,70,57,29.72,29.51,14,2,14,0.00
2013-2-9,60.1,51.0,41.5,45.7,40.1,36.7,84,68,49,29.84,29.72,19,2,19,0.00
2013-2-10,60.4,51.9,45.1,42.9,39.0,36.3,76,62,46,29.87,29.76,15,1,15,0.00
2013-2-11,56.7,48.7,43.5,37.7,35.3,32.3,77,61,46,30.03,29.74,19,2,19,0.00
2013-2-12,61.2,51.0,39.6,46.5,40.3,31.8,77,67,46,30.06,29.96,17,2,17,0.00
2013-2-13,56.5,51.9,46.6,48.7,45.3,41.7,89,78,66,29.97,29.86,31,2,31,1.24
2013-2-14,52.5,49.1,47.3,48.1,44.9,43.3,87,86,81,29.88,29.65,15,1,15,0.33
2013-2-15,52.0,48.3,45.5,46.1,43.3,40.7,88,83,73,30.00,29.65,22,2,22,0.26
2013-2-16,56.7,49.7,44.4,46.3,43.2,39.9,85,79,68,30.04,29.97,14,2,14,0.06
2013-2-17,47.5,45.7,42.1,43.4,41.0,37.0,87,84,78,30.04,29.92,25,3,25,0.39
2013-2-18,54.0,46.9,40.3,42.0,38.7,35.9,86,74,56,30.07,30.02,12,1,12,0.00
2013-2-19,55.9,49.7,44.4,50.3,44.0,38.3,88,81,73,30.03,29.75,14,1,14,0.21
2013-2-20,60.6,51.6,45.0,42.4,38.9,37.0,79,63,42,30.03,29.79,18,1,18,0.00
2013-2-21,54.5,50.4,46.0,47.8,43.3,38.2,84,76,72,30.03,29.70,15,1,15,0.02
2013-2-22,55.9,52.5,49.6,51.4,48.3,45.5,90,85,80,29.70,29.54,24,2,24,2.14
2013-2-23,65.1,54.4,46.0,55.8,47.5,43.0,90,79,57,30.00,29.70,13,1,13,2.10
2013-2-24,68.5,57.3,48.2,56.0,48.2,43.8,89,73,52,30.07,29.99,20,2,20,2.10
2013-2-25,67.8,60.4,52.9,54.6,51.5,47.5,86,73,58,30.06,29.96,17,3,17,2.10
2013-2-26,67.1,60.3,52.9,54.5,48.1,40.7,82,65,42,30.03,29.94,17,2,17,2.10
2013-2-27,61.7,54.5,49.8,45.1,40.8,37.2,75,61,41,30.04,29.92,20,2,20,2.10
2013-2-28,53.4,49.4,46.6,41.4,39.6,37.7,76,69,62,30.19,30.03,20,3,20,2.10